Temp
59 60 63 64 67 69 69 70 71 71 70 72 72 72 72 72 73 73 72 72 72 73 72 71 71 71 70 68 67 68 66 66
55 57 58 58 60 65 66 70 69 70 70 70 70 70 71 71 71 72 72 72 72 72 71 70 70 70 69 67 67 68 67 65
53 53 55 55 59 61 61 64 69 70 69 68 67 69 69 70 70 70 71 71 71 71 70 69 69 69 68 67 67 67 67 65
51 51 51 52 58 55 54 58 62 68 69 70 68 69 71 69 70 69 70 70 70 70 69 68 68 67 67 67 66 67 66 66
49 50 50 49 51 52 52 52 53 58 66 69 69 70 69 70 69 69 68 68 68 68 67 67 67 66 66 65 66 66 66 66
48 49 49 49 49 49 48 49 51 52 54 60 68 68 68 68 69 70 70 70 69 68 67 68 69 65 65 65 65 65 65 65
46 47 47 47 47 48 48 47 48 49 51 54 61 67 68 69 69 69 69 70 70 68 68 69 67 65 65 65 65 65 65 65
45 45 46 45 45 46 46 47 47 48 49 52 55 59 67 68 68 68 68 70 69 69 69 68 67 65 65 65 65 65 66 65
43 44 44 43 43 44 45 45 46 46 48 50 52 56 59 66 68 67 68 70 69 68 68 67 66 65 65 65 65 65 66 65
42 44 42 42 42 42 43 44 44 45 46 48 50 52 56 59 66 67 68 68 68 67 67 65 65 65 64 64 65 65 66 66
40 41 40 40 41 41 42 42 43 44 45 46 47 50 53 56 58 67 68 67 67 67 66 66 65 65 64 63 64 64 65 67
39 40 40 40 41 41 41 41 42 43 43 44 46 48 51 52 54 59 67 67 67 67 66 65 66 65 64 63 63 64 65 65
38 38 40 39 39 39 40 39 41 43 44 45 45 46 48 49 51 57 64 64 66 67 66 65 64 64 61 60 61 61 62 65
38 39 39 41 41 41 41 41 42 43 45 46 47 47 49 51 53 57 60 62 60 66 65 64 64 64 62 61 58 59 61 63
38 39 40 40 41 40 41 41 42 41 43 44 45 47 48 49 52 53 56 60 64 65 65 65 63 63 63 60 55 57 57 59
39 39 39 40 40 39 38 36 36 39 40 44 46 47 48 50 51 51 54 59 61 64 65 65 65 62 63 63 61 59 57 54
38 38 39 39 39 39 37 36 38 39 40 41 45 47 49 49 49 50 52 57 58 62 63 63 64 64 62 62 58 57 57 56
37 37 37 38 38 38 37 36 36 37 39 40 44 47 48 50 50 50 55 56 56 58 62 60 61 64 64 64 64 62 56 56
36 35 35 36 37 37 37 37 36 36 38 39 41 44 47 50 52 51 53 56 57 59 60 61 58 62 63 63 65 68 61 59
33 34 34 35 36 36 37 37 36 36 38 38 40 43 46 50 52 52 54 56 56 57 60 60 61 58 62 63 64 66 63 61
MSLP
1015.72 1015.54 1014.91 1014.42 1013.80 1013.23 1012.86 1012.67 1012.40 1012.40 1012.39 1012.41 1012.37 1012.40 1012.47 1012.57 1012.61 1012.61 1012.66 1012.75 1012.85 1013.01 1013.18 1013.42 1013.69 1014.02 1014.29 1014.59 1014.65 1014.70 1014.87 1015.09
1016.59 1016.28 1015.79 1015.32 1014.61 1013.91 1013.41 1012.77 1012.55 1012.42 1012.35 1012.24 1012.33 1012.34 1012.38 1012.42 1012.49 1012.53 1012.56 1012.59 1012.70 1012.89 1013.04 1013.29 1013.52 1013.84 1014.21 1014.35 1014.60 1014.71 1014.81 1015.04
1017.31 1016.85 1016.49 1016.13 1015.27 1014.73 1014.11 1013.49 1012.78 1012.37 1012.27 1012.27 1012.10 1012.05 1012.12 1012.27 1012.32 1012.31 1012.44 1012.42 1012.49 1012.73 1012.89 1013.17 1013.29 1013.61 1014.07 1014.29 1014.47 1014.62 1014.77 1015.06
1018.41 1017.94 1017.34 1016.75 1015.87 1015.40 1014.87 1014.37 1013.73 1012.98 1012.37 1012.19 1012.30 1011.94 1011.82 1011.80 1011.94 1012.11 1012.13 1012.29 1012.45 1012.50 1012.77 1013.07 1013.29 1013.44 1013.82 1014.18 1014.42 1014.50 1014.65 1014.82
1019.16 1018.58 1018.09 1017.62 1016.89 1016.15 1015.53 1015.16 1014.53 1013.81 1012.96 1012.49 1012.11 1012.01 1012.07 1012.00 1011.71 1011.81 1011.97 1012.08 1012.24 1012.55 1012.72 1012.93 1013.16 1013.33 1013.53 1013.86 1014.13 1014.28 1014.46 1014.53
1019.60 1019.03 1018.44 1017.93 1017.39 1016.81 1016.33 1015.65 1015.00 1014.51 1013.84 1013.21 1012.25 1011.78 1011.61 1011.85 1011.57 1011.25 1011.49 1011.70 1012.03 1012.22 1012.48 1012.60 1012.90 1013.17 1013.27 1013.48 1013.76 1013.93 1014.16 1014.27
1019.85 1019.28 1018.73 1018.21 1017.49 1017.00 1016.50 1015.92 1015.43 1014.80 1014.26 1013.64 1013.11 1011.93 1011.46 1011.18 1011.34 1011.04 1010.93 1011.12 1011.43 1011.83 1012.03 1012.30 1012.59 1012.85 1013.07 1013.14 1013.33 1013.53 1013.76 1013.95
1020.20 1019.61 1019.06 1018.56 1017.92 1017.32 1016.72 1016.13 1015.52 1014.94 1014.33 1013.74 1013.29 1012.62 1011.42 1010.97 1010.73 1010.81 1010.66 1010.39 1010.81 1011.29 1011.62 1011.93 1012.21 1012.32 1012.70 1012.83 1012.92 1013.06 1013.29 1013.51
1020.53 1019.70 1019.29 1018.78 1018.03 1017.42 1016.88 1016.21 1015.60 1015.00 1014.35 1013.76 1013.19 1012.56 1011.89 1010.80 1010.17 1010.01 1009.94 1009.83 1010.00 1010.67 1011.15 1011.54 1011.86 1011.99 1012.12 1012.49 1012.61 1012.65 1012.85 1013.17
1020.74 1020.03 1019.27 1018.68 1018.20 1017.57 1016.88 1016.26 1015.63 1014.93 1014.28 1013.70 1013.00 1012.45 1011.85 1011.03 1009.83 1009.28 1008.97 1009.01 1009.26 1009.73 1010.38 1010.96 1011.21 1011.50 1011.63 1011.86 1012.24 1012.34 1012.36 1012.63
1020.63 1019.92 1019.32 1018.87 1018.29 1017.60 1016.96 1016.25 1015.59 1014.85 1014.18 1013.61 1012.99 1012.30 1011.56 1010.85 1010.04 1008.60 1007.97 1008.08 1007.61 1008.40 1009.18 1009.89 1010.44 1010.86 1011.30 1011.53 1011.86 1012.07 1012.07 1012.10
1020.91 1020.17 1019.41 1019.07 1018.46 1017.56 1016.79 1016.14 1015.41 1014.77 1013.98 1013.42 1012.75 1012.07 1011.25 1010.65 1009.78 1008.78 1007.38 1007.23 1007.31 1007.29 1007.73 1008.55 1009.23 1009.89 1010.63 1011.12 1011.40 1011.56 1011.71 1011.80
1021.13 1020.35 1019.80 1019.12 1018.21 1017.41 1016.69 1015.66 1014.96 1014.28 1013.52 1012.77 1012.21 1011.52 1010.84 1010.20 1009.32 1008.46 1007.27 1006.53 1006.42 1006.09 1007.07 1007.22 1008.41 1009.21 1010.28 1010.85 1011.36 1011.46 1011.48 1011.44
1020.89 1020.13 1019.56 1018.90 1018.24 1017.65 1016.75 1015.70 1014.82 1013.82 1012.90 1012.13 1011.58 1010.76 1010.00 1009.21 1008.50 1007.88 1007.36 1006.13 1005.60 1005.17 1006.27 1006.53 1007.29 1008.21 1009.09 1009.96 1010.85 1011.50 1011.06 1011.14
1020.81 1020.30 1019.69 1019.00 1018.29 1017.35 1016.29 1015.21 1014.24 1013.24 1012.34 1011.59 1010.84 1010.20 1009.40 1008.67 1007.94 1007.66 1007.05 1006.25 1005.32 1004.79 1004.19 1005.87 1006.35 1007.24 1007.69 1008.46 1009.46 1009.85 1010.26 1010.48
1021.08 1020.45 1019.86 1018.95 1018.21 1017.17 1016.18 1015.14 1013.89 1012.91 1012.01 1010.93 1009.86 1009.25 1008.62 1008.00 1007.39 1007.13 1006.64 1005.54 1004.57 1004.43 1004.37 1005.11 1005.64 1005.97 1007.11 1007.69 1007.41 1008.00 1009.17 1010.20
1021.43 1020.93 1019.71 1018.83 1018.13 1017.18 1016.11 1014.99 1014.03 1012.70 1011.52 1010.39 1009.09 1008.23 1007.63 1007.15 1006.76 1006.26 1005.86 1005.07 1004.25 1003.36 1003.94 1003.82 1004.57 1004.61 1005.79 1006.64 1007.58 1007.65 1007.82 1008.38
1021.85 1020.49 1019.61 1018.79 1017.91 1016.91 1015.99 1014.92 1013.60 1012.23 1011.05 1009.82 1008.48 1007.34 1006.60 1006.05 1005.77 1005.38 1004.67 1004.19 1003.89 1003.26 1003.10 1002.75 1004.13 1004.49 1004.70 1005.17 1005.77 1006.26 1006.99 1007.57
1021.50 1020.67 1019.65 1018.77 1017.85 1016.89 1015.88 1014.83 1013.67 1012.43 1010.97 1009.56 1008.28 1007.04 1005.86 1004.92 1004.53 1004.26 1003.87 1003.27 1002.89 1002.78 1002.56 1002.74 1004.28 1004.23 1004.25 1004.13 1004.54 1004.85 1005.38 1006.19
1021.60 1020.92 1019.89 1018.86 1018.10 1016.95 1015.90 1014.80 1013.65 1012.38 1010.88 1009.50 1008.13 1007.04 1005.50 1004.31 1003.58 1003.33 1003.10 1002.58 1002.22 1002.03 1001.83 1001.87 1002.73 1003.69 1002.47 1003.62 1003.64 1004.04 1004.56 1004.90
Wind_Speed
14 15 19 24 22 21 15 9 6 6 7 7 8 8 8 9 10 10 8 9 10 11 11 11 10 10 9 7 8 9 6 4
15 14 14 14 12 23 24 17 9 8 8 8 8 7 8 9 10 10 10 9 11 11 11 10 10 10 10 8 8 8 5 4
15 15 14 14 12 14 19 22 18 10 6 9 7 4 6 7 8 10 11 11 11 11 11 11 10 10 11 9 9 3 4 3
14 13 13 14 11 11 11 11 10 11 7 5 5 5 5 6 8 11 11 11 11 11 10 9 8 4 4 8 3 4 3 4
13 12 10 11 10 9 6 6 7 8 11 9 6 3 5 5 4 4 5 8 4 6 5 4 6 4 4 5 5 4 3 3
12 13 11 11 7 6 6 7 7 7 9 12 8 4 4 6 6 6 6 5 7 6 4 6 9 5 6 7 6 4 3 3
15 14 12 12 11 8 8 8 6 8 8 10 9 8 7 6 8 7 7 7 7 8 7 8 8 8 6 7 7 7 6 3
14 14 13 12 11 12 9 8 8 8 8 8 10 10 9 7 8 9 8 9 9 8 9 9 9 8 8 7 8 6 6 6
14 14 13 13 14 11 9 9 9 8 8 11 11 9 13 11 8 9 10 9 11 9 9 7 8 7 8 7 7 7 6 6
13 13 14 14 13 11 9 10 9 9 8 9 12 12 12 13 10 10 10 10 10 10 9 9 9 9 7 7 7 6 8 7
15 15 14 16 14 11 11 12 9 9 9 9 12 13 13 10 11 11 13 11 13 11 10 11 10 9 7 6 6 6 7 6
14 13 15 15 11 10 9 9 9 9 10 10 14 11 14 10 10 14 12 12 12 12 15 11 11 10 9 7 6 6 6 7
15 15 15 12 10 12 12 13 12 12 10 15 15 14 14 13 11 12 13 11 15 15 13 14 11 9 5 3 2 4 6 7
15 16 17 15 12 12 12 13 11 13 13 15 16 15 15 13 13 9 11 11 14 17 15 9 10 11 9 5 5 2 7 6
17 18 18 16 17 13 11 12 11 11 12 13 14 16 16 15 13 10 10 10 13 16 14 17 11 10 11 6 4 7 4 3
17 18 18 16 19 16 16 13 15 13 13 12 13 18 18 17 14 12 10 10 8 12 13 18 13 12 10 8 2 6 5 3
15 17 16 17 17 17 14 15 12 12 12 16 16 15 16 16 14 13 11 9 8 8 10 10 12 11 11 11 3 2 2 4
16 16 18 17 16 18 16 17 17 13 13 12 11 11 11 13 14 14 12 9 9 8 12 14 16 10 12 12 13 8 4 4
14 17 18 19 18 17 17 17 18 18 15 11 15 12 11 12 13 11 11 11 10 9 12 16 10 12 14 12 13 13 5 4
17 19 18 18 18 19 16 17 11 11 12 13 11 11 12 15 13 10 14 11 9 8 8 9 14 10 10 12 10 12 7 5
Wind_Direction
20 10 8 4 0 360 343 320 305 280 244 224 216 213 209 205 202 208 200 188 186 181 179 177 183 174 177 172 178 169 158 159
14 8 5 0 353 2 359 347 304 291 272 238 226 222 219 215 211 213 209 197 186 188 185 181 188 174 175 179 178 185 176 172
7 3 3 359 354 356 358 355 347 312 285 280 266 225 221 223 217 212 213 207 193 192 190 185 187 176 172 183 171 187 189 192
6 359 357 354 353 354 351 349 347 337 316 291 292 255 241 218 214 217 212 211 203 193 193 184 181 171 166 182 186 192 197 193
356 352 354 353 348 346 346 344 339 336 344 325 284 256 264 257 221 214 220 218 199 199 189 185 187 182 175 172 191 192 212 206
352 348 349 352 343 342 332 335 337 329 328 327 310 274 232 251 246 216 212 205 203 195 192 190 203 203 187 181 187 193 204 212
350 346 350 345 345 341 335 329 321 315 318 313 322 303 251 232 242 233 215 204 201 207 199 203 201 204 199 190 193 193 201 209
341 343 345 340 340 336 328 320 314 315 305 303 310 302 292 255 236 236 222 206 203 207 205 205 210 198 198 198 204 194 196 201
339 340 341 339 335 331 324 317 316 307 305 300 299 303 308 279 253 223 228 215 196 205 209 204 213 202 200 194 202 198 198 202
335 336 336 337 332 326 320 318 315 306 300 301 298 295 291 301 266 243 214 213 199 195 199 203 210 205 203 196 201 198 197 194
339 340 340 336 327 322 319 315 313 309 308 304 298 292 290 282 292 270 222 217 198 196 197 202 205 203 207 196 200 204 200 187
339 338 339 334 327 322 319 315 310 309 306 300 298 293 288 289 283 287 233 217 219 203 198 196 202 200 199 201 200 206 204 195
341 337 339 335 333 333 323 322 319 312 305 301 295 286 282 277 271 272 277 219 261 202 205 192 199 183 175 201 184 221 214 205
342 346 342 338 333 324 318 316 306 304 304 301 299 294 288 273 264 284 298 237 226 230 202 191 199 180 188 171 191 219 223 219
346 343 339 335 333 323 314 309 303 304 304 299 296 292 284 275 278 280 285 289 229 211 208 198 197 186 193 169 153 210 133 179
342 343 336 335 332 328 320 312 312 306 301 293 291 291 287 282 285 286 281 286 258 222 217 205 201 186 193 224 244 144 171 172
347 333 336 339 335 332 323 315 304 300 294 291 288 283 279 276 267 264 259 250 256 240 205 223 212 189 193 193 202 155 117 136
340 342 343 339 336 338 323 315 313 307 300 299 293 288 276 270 268 262 249 238 230 230 218 219 272 233 196 195 201 183 173 148
347 348 344 346 343 338 333 331 324 313 307 304 305 297 286 277 270 251 253 239 231 216 212 197 218 252 212 195 201 206 153 143
353 348 342 347 344 341 339 341 331 326 326 322 311 301 294 281 265 250 261 248 238 214 204 196 215 263 236 209 197 205 180 163